AFR18L LFMN-LFBD

Flight info

Callsign AFR18L
Flight time 1h 6m
Altitude 33000
Route TURIL DCT PADKO/N0454F340 DCT FJR DCT FISTO DCT MIRBA
Aircraft A320/M-SDE3FGHIRWY/LB1

Departure

Time 2026-05-07 20:14
Airport Nice-Côte d'Azur Airport (LFMN)

Arrival

Time 2026-05-07 21:21
Airport Bordeaux–Mérignac Airport (LFBD)
Time Latitude Longitude Altitude Speed Heading
2026-05-07 19:36 43.66408 7.21175 25 ft 0 kts 13°
2026-05-07 20:02 43.66397 7.21181 23 ft 2 kts 346°
2026-05-07 20:02 43.66381 7.21186 24 ft 2 kts 349°
2026-05-07 20:03 43.66365 7.21190 23 ft 2 kts 351°
2026-05-07 20:03 43.66349 7.21193 24 ft 2 kts 351°
2026-05-07 20:03 43.66333 7.21199 27 ft 2 kts 311°
2026-05-07 20:03 43.66327 7.21214 23 ft 1 kts 260°
2026-05-07 20:04 43.66327 7.21215 23 ft 0 kts 258°
2026-05-07 20:06 43.66326 7.21210 23 ft 3 kts 259°
2026-05-07 20:06 43.66319 7.21140 22 ft 9 kts 261°
2026-05-07 20:06 43.66310 7.21057 22 ft 8 kts 261°
2026-05-07 20:06 43.66272 7.21001 22 ft 12 kts 191°
2026-05-07 20:07 43.66179 7.21024 23 ft 14 kts 169°
2026-05-07 20:07 43.66086 7.21043 22 ft 13 kts 171°
2026-05-07 20:07 43.66001 7.21061 23 ft 11 kts 169°
2026-05-07 20:07 43.65935 7.21098 22 ft 9 kts 176°
2026-05-07 20:08 43.65868 7.21029 22 ft 15 kts 225°
2026-05-07 20:08 43.65801 7.20938 22 ft 9 kts 225°
2026-05-07 20:08 43.65755 7.20884 22 ft 8 kts 200°
2026-05-07 20:08 43.65706 7.20888 24 ft 4 kts 171°
2026-05-07 20:09 43.65702 7.20889 23 ft 0 kts 171°
2026-05-07 20:10 43.65694 7.20891 22 ft 7 kts 171°
2026-05-07 20:10 43.65602 7.20911 24 ft 15 kts 171°
2026-05-07 20:10 43.65502 7.20933 22 ft 15 kts 171°
2026-05-07 20:10 43.65397 7.20956 22 ft 16 kts 171°
2026-05-07 20:11 43.65307 7.20901 22 ft 15 kts 224°
2026-05-07 20:11 43.65239 7.20804 22 ft 13 kts 225°
2026-05-07 20:11 43.65168 7.20709 22 ft 17 kts 225°
2026-05-07 20:11 43.65082 7.20590 22 ft 18 kts 225°
2026-05-07 20:12 43.64993 7.20467 22 ft 18 kts 224°
2026-05-07 20:12 43.64899 7.20338 22 ft 20 kts 226°
2026-05-07 20:12 43.64812 7.20218 22 ft 13 kts 225°
2026-05-07 20:12 43.64770 7.20185 22 ft 0 kts 184°
2026-05-07 20:13 43.64769 7.20185 22 ft 0 kts 184°
2026-05-07 20:13 43.64723 7.20212 22 ft 15 kts 136°
2026-05-07 20:13 43.64735 7.20335 22 ft 15 kts 44°
2026-05-07 20:14 43.64867 7.20513 22 ft 53 kts 45°
2026-05-07 20:14 43.65299 7.21108 23 ft 119 kts 45°
2026-05-07 20:14 43.66008 7.22084 36 ft 166 kts 46°
2026-05-07 20:14 43.66753 7.23301 626 ft 167 kts 66°
2026-05-07 20:15 43.66743 7.24855 1267 ft 168 kts 114°
2026-05-07 20:15 43.65981 7.26138 1673 ft 187 kts 136°
2026-05-07 20:15 43.64988 7.27432 2067 ft 203 kts 136°
2026-05-07 20:15 43.63944 7.28799 2567 ft 214 kts 136°
2026-05-07 20:16 43.62850 7.30241 3324 ft 219 kts 136°
2026-05-07 20:16 43.61745 7.31706 4188 ft 221 kts 136°
2026-05-07 20:16 43.60495 7.32953 5005 ft 225 kts 161°
2026-05-07 20:16 43.58943 7.33115 5818 ft 229 kts 194°
2026-05-07 20:17 43.57518 7.32130 6627 ft 232 kts 213°
2026-05-07 20:17 43.56170 7.30885 7428 ft 235 kts 213°
2026-05-07 20:17 43.54826 7.29642 8218 ft 237 kts 213°
2026-05-07 20:17 43.53446 7.28369 9059 ft 240 kts 213°
2026-05-07 20:18 43.52037 7.27073 9727 ft 252 kts 213°
2026-05-07 20:18 43.50677 7.25393 10077 ft 277 kts 234°
2026-05-07 20:18 43.49607 7.23049 10394 ft 301 kts 238°
2026-05-07 20:18 43.48487 7.20481 10688 ft 325 kts 238°
2026-05-07 20:19 43.47702 7.18665 10859 ft 341 kts 238°
2026-05-07 20:19 43.46457 7.15782 11233 ft 357 kts 238°
2026-05-07 20:19 43.45175 7.12825 11940 ft 362 kts 238°
2026-05-07 20:19 43.43876 7.09837 12715 ft 365 kts 238°
2026-05-07 20:20 43.42136 7.05845 13699 ft 370 kts 238°
2026-05-07 20:20 43.40810 7.02812 13918 ft 371 kts 238°
2026-05-07 20:20 43.39470 6.99763 14384 ft 374 kts 238°
2026-05-07 20:20 43.38120 6.96699 15110 ft 376 kts 238°
2026-05-07 20:21 43.37218 6.94658 15563 ft 377 kts 238°
2026-05-07 20:21 43.35853 6.91567 16240 ft 380 kts 238°
2026-05-07 20:21 43.34479 6.88450 16897 ft 382 kts 238°
2026-05-07 20:21 43.33097 6.85316 17537 ft 385 kts 238°
2026-05-07 20:22 43.31704 6.82160 18154 ft 388 kts 238°
2026-05-07 20:22 43.29838 6.77945 18902 ft 391 kts 239°
2026-05-07 20:22 43.28882 6.75787 19282 ft 393 kts 239°
2026-05-07 20:22 43.27459 6.72577 19825 ft 394 kts 239°
2026-05-07 20:23 43.26028 6.69358 20383 ft 396 kts 239°
2026-05-07 20:23 43.24609 6.66165 20910 ft 398 kts 239°
2026-05-07 20:23 43.23295 6.62822 21429 ft 400 kts 246°
2026-05-07 20:23 43.22424 6.59196 21933 ft 402 kts 257°
2026-05-07 20:24 43.22044 6.55386 22462 ft 405 kts 266°
2026-05-07 20:24 43.22073 6.51512 22948 ft 408 kts 270°
2026-05-07 20:24 43.22135 6.47615 23458 ft 409 kts 270°
2026-05-07 20:24 43.22192 6.43704 23891 ft 411 kts 269°
2026-05-07 20:25 43.22246 6.39776 24286 ft 413 kts 269°
2026-05-07 20:25 43.22299 6.35891 24695 ft 414 kts 269°
2026-05-07 20:25 43.22352 6.31936 25106 ft 416 kts 269°
2026-05-07 20:25 43.22402 6.27967 25508 ft 417 kts 269°
2026-05-07 20:26 43.22450 6.23990 25912 ft 418 kts 268°
2026-05-07 20:26 43.22493 6.19996 26278 ft 420 kts 268°
2026-05-07 20:26 43.22536 6.15985 26649 ft 421 kts 268°
2026-05-07 20:26 43.22579 6.11964 27022 ft 422 kts 268°
2026-05-07 20:27 43.22620 6.07930 27397 ft 424 kts 268°
2026-05-07 20:27 43.22659 6.03875 27695 ft 427 kts 268°
2026-05-07 20:27 43.22698 5.99859 28018 ft 428 kts 268°
2026-05-07 20:27 43.22740 5.95765 28333 ft 430 kts 268°
2026-05-07 20:28 43.22782 5.91661 28657 ft 432 kts 268°
2026-05-07 20:28 43.22822 5.87538 28998 ft 433 kts 268°
2026-05-07 20:28 43.22859 5.83421 29485 ft 431 kts 267°
2026-05-07 20:28 43.22894 5.79321 29986 ft 429 kts 267°
2026-05-07 20:29 43.22923 5.75247 30405 ft 427 kts 267°
2026-05-07 20:29 43.22951 5.71185 30797 ft 425 kts 267°
2026-05-07 20:29 43.22980 5.67130 31171 ft 425 kts 267°
2026-05-07 20:29 43.23006 5.63139 31548 ft 424 kts 266°
2026-05-07 20:30 43.23030 5.59103 31958 ft 422 kts 266°
2026-05-07 20:30 43.23056 5.55089 32378 ft 420 kts 266°
2026-05-07 20:30 43.23083 5.51088 32793 ft 419 kts 266°
2026-05-07 20:30 43.23108 5.47098 32976 ft 418 kts 266°
2026-05-07 20:31 43.23129 5.43112 33006 ft 417 kts 266°
2026-05-07 20:31 43.23239 5.35163 33002 ft 420 kts 271°
2026-05-07 20:32 43.24700 5.27406 33001 ft 426 kts 284°
2026-05-07 20:32 43.26719 5.19762 33000 ft 426 kts 284°
2026-05-07 20:33 43.28715 5.12114 33003 ft 426 kts 284°
2026-05-07 20:33 43.30702 5.04455 33002 ft 426 kts 284°
2026-05-07 20:34 43.32674 4.96848 33020 ft 425 kts 284°
2026-05-07 20:34 43.34646 4.89201 33034 ft 424 kts 283°
2026-05-07 20:35 43.36606 4.81581 33030 ft 422 kts 283°
2026-05-07 20:35 43.38561 4.73975 33024 ft 422 kts 283°
2026-05-07 20:36 43.40494 4.66422 33016 ft 421 kts 283°
2026-05-07 20:36 43.42430 4.58824 33011 ft 421 kts 283°
2026-05-07 20:37 43.44365 4.51218 33010 ft 421 kts 283°
2026-05-07 20:37 43.46293 4.43607 33002 ft 421 kts 283°
2026-05-07 20:38 43.48216 4.35987 33000 ft 421 kts 283°
2026-05-07 20:38 43.50123 4.28408 32999 ft 422 kts 283°
2026-05-07 20:39 43.52039 4.20775 32999 ft 422 kts 283°
2026-05-07 20:39 43.53945 4.13139 33015 ft 422 kts 282°
2026-05-07 20:40 43.55850 4.05492 33011 ft 421 kts 282°
2026-05-07 20:40 43.57745 3.97914 33021 ft 422 kts 284°
2026-05-07 20:41 43.60193 3.90500 33016 ft 425 kts 288°
2026-05-07 20:41 43.62694 3.83117 33021 ft 424 kts 288°
2026-05-07 20:42 43.65176 3.75734 33024 ft 424 kts 287°
2026-05-07 20:42 43.67649 3.68333 33013 ft 424 kts 287°
2026-05-07 20:43 43.70104 3.60980 33019 ft 424 kts 287°
2026-05-07 20:43 43.72578 3.53567 33016 ft 424 kts 287°
2026-05-07 20:44 43.75049 3.46145 33012 ft 425 kts 287°
2026-05-07 20:44 43.77513 3.38714 33008 ft 425 kts 287°
2026-05-07 20:45 43.79952 3.31325 33009 ft 425 kts 288°
2026-05-07 20:45 43.82407 3.23873 33004 ft 426 kts 287°
2026-05-07 20:46 43.84856 3.16399 33004 ft 426 kts 287°
2026-05-07 20:46 43.87308 3.08917 33011 ft 427 kts 287°
2026-05-07 20:47 43.89750 3.01476 33010 ft 428 kts 288°
2026-05-07 20:47 43.92204 2.93948 32994 ft 429 kts 288°
2026-05-07 20:48 43.94661 2.86375 32986 ft 431 kts 288°
2026-05-07 20:48 43.97121 2.78780 32991 ft 432 kts 288°
2026-05-07 20:49 43.99582 2.71173 32996 ft 432 kts 288°
2026-05-07 20:49 44.02027 2.63592 32993 ft 434 kts 290°
2026-05-07 20:50 44.04500 2.55899 32980 ft 437 kts 290°
2026-05-07 20:50 44.06977 2.48150 32981 ft 440 kts 290°
2026-05-07 20:51 44.09466 2.40367 32982 ft 441 kts 289°
2026-05-07 20:51 44.11933 2.32619 32985 ft 441 kts 289°
2026-05-07 20:52 44.14419 2.24796 32989 ft 442 kts 290°
2026-05-07 20:52 44.16903 2.16963 32985 ft 442 kts 290°
2026-05-07 20:53 44.19382 2.09108 32976 ft 443 kts 289°
2026-05-07 20:53 44.21834 2.01297 32985 ft 443 kts 290°
2026-05-07 20:54 44.24300 1.93416 32973 ft 443 kts 289°
2026-05-07 20:54 44.26768 1.85514 32989 ft 444 kts 290°
2026-05-07 20:55 44.29232 1.77616 32977 ft 444 kts 290°
2026-05-07 20:55 44.31695 1.69716 32975 ft 444 kts 290°
2026-05-07 20:56 44.34140 1.61857 32969 ft 444 kts 290°
2026-05-07 20:56 44.36585 1.53931 32969 ft 444 kts 289°
2026-05-07 20:57 44.39021 1.45988 32967 ft 444 kts 290°
2026-05-07 20:57 44.41454 1.38075 32974 ft 445 kts 290°
2026-05-07 20:58 44.43895 1.30108 32773 ft 447 kts 290°
2026-05-07 20:58 44.45118 1.26095 32478 ft 447 kts 290°
2026-05-07 20:58 44.46338 1.22082 31440 ft 451 kts 290°
2026-05-07 20:58 44.47552 1.18048 30431 ft 455 kts 290°
2026-05-07 20:59 44.48772 1.13949 29292 ft 458 kts 290°
2026-05-07 20:59 44.49989 1.09822 28106 ft 459 kts 290°
2026-05-07 20:59 44.51204 1.05665 26914 ft 461 kts 290°
2026-05-07 20:59 44.52420 1.01493 25666 ft 464 kts 290°
2026-05-07 21:00 44.53643 0.97303 24588 ft 464 kts 290°
2026-05-07 21:00 44.54861 0.93148 23780 ft 457 kts 290°
2026-05-07 21:00 44.56066 0.89051 22850 ft 452 kts 290°
2026-05-07 21:00 44.57254 0.85009 22073 ft 444 kts 290°
2026-05-07 21:01 44.58404 0.81086 21317 ft 438 kts 290°
2026-05-07 21:01 44.59555 0.77157 20602 ft 432 kts 290°
2026-05-07 21:01 44.60687 0.73280 19886 ft 427 kts 290°
2026-05-07 21:01 44.61807 0.69427 19200 ft 423 kts 290°
2026-05-07 21:02 44.62908 0.65621 18538 ft 418 kts 290°
2026-05-07 21:02 44.64002 0.61845 17838 ft 414 kts 290°
2026-05-07 21:02 44.65066 0.58169 17234 ft 407 kts 290°
2026-05-07 21:02 44.66126 0.54505 16656 ft 400 kts 290°
2026-05-07 21:03 44.67167 0.50903 16091 ft 394 kts 290°
2026-05-07 21:03 44.68177 0.47406 15560 ft 388 kts 290°
2026-05-07 21:03 44.69181 0.43918 15031 ft 383 kts 290°
2026-05-07 21:03 44.70171 0.40467 14507 ft 378 kts 290°
2026-05-07 21:04 44.71144 0.37059 13966 ft 374 kts 290°
2026-05-07 21:04 44.72111 0.33673 13391 ft 371 kts 290°
2026-05-07 21:04 44.73092 0.30335 12812 ft 366 kts 292°
2026-05-07 21:04 44.74121 0.27068 12246 ft 363 kts 293°
2026-05-07 21:05 44.75163 0.23894 11641 ft 360 kts 294°
2026-05-07 21:05 44.76219 0.20713 11089 ft 356 kts 294°
2026-05-07 21:05 44.77240 0.17626 10949 ft 340 kts 294°
2026-05-07 21:05 44.78209 0.14675 10821 ft 325 kts 294°
2026-05-07 21:06 44.79133 0.11831 10693 ft 312 kts 293°
2026-05-07 21:06 44.80013 0.09098 10568 ft 301 kts 293°
2026-05-07 21:06 44.80861 0.06452 10382 ft 292 kts 293°
2026-05-07 21:06 44.81690 0.03863 10142 ft 288 kts 293°
2026-05-07 21:07 44.82501 0.01329 9904 ft 286 kts 293°
2026-05-07 21:07 44.83318 -0.01229 9778 ft 286 kts 293°
2026-05-07 21:07 44.84136 -0.03797 9643 ft 286 kts 293°
2026-05-07 21:07 44.84949 -0.06356 9511 ft 286 kts 293°
2026-05-07 21:08 44.85763 -0.08914 9194 ft 286 kts 293°
2026-05-07 21:08 44.86576 -0.11472 8754 ft 286 kts 293°
2026-05-07 21:08 44.87392 -0.14027 8308 ft 286 kts 294°
2026-05-07 21:08 44.88204 -0.16574 7922 ft 283 kts 294°
2026-05-07 21:09 44.88911 -0.19165 7512 ft 282 kts 284°
2026-05-07 21:09 44.89221 -0.21852 7082 ft 281 kts 276°
2026-05-07 21:09 44.89449 -0.24582 6633 ft 281 kts 276°
2026-05-07 21:09 44.89682 -0.27295 6302 ft 277 kts 277°
2026-05-07 21:10 44.89917 -0.29986 5858 ft 276 kts 277°
2026-05-07 21:10 44.90151 -0.32672 5409 ft 276 kts 276°
2026-05-07 21:10 44.90379 -0.35355 4976 ft 275 kts 276°
2026-05-07 21:10 44.90603 -0.38028 4532 ft 274 kts 276°
2026-05-07 21:11 44.90824 -0.40662 4322 ft 264 kts 276°
2026-05-07 21:11 44.91037 -0.43171 4194 ft 252 kts 276°
2026-05-07 21:11 44.91429 -0.47835 3998 ft 233 kts 276°
2026-05-07 21:12 44.91619 -0.50121 3999 ft 232 kts 276°
2026-05-07 21:12 44.91807 -0.52401 3998 ft 236 kts 276°
2026-05-07 21:12 44.91997 -0.54714 4005 ft 238 kts 276°
2026-05-07 21:12 44.92189 -0.57029 4006 ft 238 kts 276°
2026-05-07 21:13 44.92382 -0.59346 3999 ft 238 kts 276°
2026-05-07 21:13 44.92575 -0.61663 4008 ft 238 kts 276°
2026-05-07 21:13 44.92767 -0.63979 4008 ft 238 kts 276°
2026-05-07 21:13 44.92954 -0.66268 4008 ft 238 kts 276°
2026-05-07 21:14 44.93143 -0.68584 4008 ft 238 kts 276°
2026-05-07 21:14 44.93332 -0.70905 4006 ft 238 kts 275°
2026-05-07 21:14 44.93521 -0.73223 4006 ft 238 kts 276°
2026-05-07 21:14 44.93711 -0.75547 3887 ft 239 kts 275°
2026-05-07 21:15 44.93900 -0.77887 3492 ft 241 kts 275°
2026-05-07 21:15 44.94089 -0.80220 3248 ft 236 kts 275°
2026-05-07 21:15 44.94277 -0.82523 3161 ft 237 kts 275°
2026-05-07 21:15 44.94462 -0.84805 3056 ft 237 kts 275°
2026-05-07 21:16 44.94573 -0.87117 2951 ft 235 kts 262°
2026-05-07 21:16 44.94045 -0.89253 2946 ft 231 kts 233°
2026-05-07 21:16 44.92884 -0.90825 2584 ft 236 kts 205°
2026-05-07 21:16 44.91356 -0.91546 2331 ft 229 kts 193°
2026-05-07 21:17 44.89855 -0.92145 2165 ft 219 kts 193°
2026-05-07 21:17 44.88400 -0.92428 2070 ft 205 kts 167°
2026-05-07 21:17 44.87233 -0.91519 2009 ft 190 kts 129°
2026-05-07 21:17 44.86726 -0.89929 2009 ft 171 kts 104°
2026-05-07 21:18 44.86435 -0.88430 2019 ft 147 kts 107°
2026-05-07 21:18 44.86155 -0.87107 2006 ft 137 kts 107°
2026-05-07 21:18 44.85886 -0.85844 2008 ft 133 kts 107°
2026-05-07 21:18 44.85621 -0.84601 2005 ft 132 kts 107°
2026-05-07 21:19 44.85357 -0.83357 1918 ft 134 kts 107°
2026-05-07 21:19 44.85093 -0.82114 1701 ft 131 kts 107°
2026-05-07 21:19 44.84832 -0.80889 1477 ft 131 kts 107°
2026-05-07 21:19 44.84575 -0.79680 1288 ft 131 kts 107°
2026-05-07 21:20 44.84316 -0.78453 1088 ft 130 kts 106°
2026-05-07 21:20 44.84058 -0.77226 894 ft 131 kts 103°
2026-05-07 21:20 44.83801 -0.75973 663 ft 135 kts 105°
2026-05-07 21:20 44.83534 -0.74713 484 ft 135 kts 106°
2026-05-07 21:21 44.83274 -0.73456 293 ft 133 kts 105°
2026-05-07 21:21 44.83017 -0.72251 167 ft 119 kts 105°
2026-05-07 21:21 44.82856 -0.71487 165 ft 38 kts 108°
2026-05-07 21:21 44.82807 -0.71257 163 ft 16 kts 107°
2026-05-07 21:22 44.82815 -0.71156 164 ft 10 kts 74°
2026-05-07 21:22 44.82839 -0.71127 165 ft 8 kts 48°
2026-05-07 21:22 44.82924 -0.70999 165 ft 20 kts 49°
2026-05-07 21:22 44.82942 -0.70827 165 ft 16 kts 44°
2026-05-07 21:23 44.83031 -0.70728 165 ft 14 kts 43°
2026-05-07 21:23 44.83030 -0.70644 165 ft 8 kts 135°